Temp
2 2 1 1 0 -0 -0 -1 -0 0 1 1 0 -0 -1 -2 -1 -1 -1 -1 -1 -0 0 0 1 1 1 1 1 2 2 2 2 2 2 2 3 3
1 1 0 -0 -1 -1 -1 -1 -1 -1 -0 -0 -1 -1 -2 -2 -2 -2 -2 -2 -2 -1 -1 -0 -0 -0 0 0 0 1 1 1 1 1 2 2 3 3
0 -1 -1 -1 -1 -1 -2 -2 -2 -2 -1 -1 -1 -2 -2 -2 -1 -2 -2 -2 -2 -2 -2 -1 -1 -1 -0 -0 0 0 0 0 1 1 1 1 2 2
-1 -1 -2 -2 -2 -2 -2 -2 -2 -2 -2 -2 -2 -2 -2 -2 -2 -3 -3 -3 -3 -3 -3 -2 -2 -2 -1 -1 -1 -1 -1 -0 -1 -0 0 1 1 1
-1 -2 -2 -3 -3 -3 -3 -3 -2 -3 -3 -3 -2 -2 -2 -3 -3 -3 -3 -3 -3 -3 -3 -3 -3 -2 -2 -2 -2 -1 -1 -1 -1 -1 -1 -1 -0 0
-1 -2 -3 -3 -3 -3 -3 -3 -3 -2 -2 -2 -2 -3 -3 -3 -3 -3 -3 -3 -3 -4 -4 -4 -3 -3 -3 -3 -3 -2 -2 -2 -2 -2 -1 -2 -1 -1
-2 -2 -3 -3 -3 -2 -2 -2 -2 -2 -2 -3 -3 -3 -3 -3 -3 -3 -4 -4 -4 -4 -4 -4 -3 -4 -4 -4 -4 -3 -3 -3 -3 -2 -2 -2 -1 -1
-3 -3 -3 -3 -3 -3 -3 -3 -2 -2 -3 -3 -3 -3 -3 -3 -4 -4 -4 -4 -4 -4 -3 -4 -4 -4 -4 -4 -4 -4 -3 -3 -3 -2 -2 -2 -1 -1
-3 -3 -3 -3 -3 -4 -4 -3 -3 -3 -3 -3 -3 -4 -4 -4 -5 -5 -4 -4 -4 -4 -4 -4 -4 -4 -4 -4 -4 -4 -4 -3 -3 -2 -2 -2 -2 -1
-3 -3 -3 -4 -4 -4 -3 -4 -3 -4 -4 -4 -4 -4 -5 -4 -4 -4 -5 -5 -5 -5 -4 -4 -4 -4 -5 -5 -4 -4 -4 -3 -3 -2 -2 -2 -2 -2
-3 -3 -4 -3 -3 -3 -3 -4 -3 -4 -4 -4 -4 -4 -5 -5 -5 -6 -5 -5 -5 -5 -5 -5 -4 -5 -5 -5 -4 -4 -3 -3 -3 -3 -2 -2 -1 -1
-3 -3 -4 -4 -3 -3 -3 -4 -4 -5 -5 -5 -5 -6 -6 -6 -6 -6 -7 -6 -6 -5 -4 -5 -5 -5 -4 -3 -3 -4 -4 -4 -3 -3 -3 -2 -2 -2
-3 -3 -4 -4 -4 -4 -4 -4 -5 -4 -5 -6 -6 -6 -6 -6 -6 -7 -7 -8 -7 -7 -6 -6 -6 -6 -5 -4 -4 -4 -4 -4 -4 -4 -3 -3 -3 -3
-3 -4 -4 -4 -4 -5 -5 -6 -5 -5 -6 -7 -7 -7 -7 -7 -8 -8 -8 -8 -8 -8 -8 -8 -7 -6 -6 -4 -3 -3 -3 -3 -3 -3 -3 -3 -3 -2
-4 -4 -4 -5 -6 -7 -7 -6 -6 -7 -7 -7 -7 -7 -8 -8 -9 -8 -8 -8 -8 -8 -7 -7 -7 -6 -6 -4 -3 -3 -2 -2 -2 -3 -2 -2 -2 -3
-4 -5 -6 -7 -7 -7 -7 -7 -7 -7 -7 -7 -8 -8 -8 -8 -8 -8 -8 -8 -8 -7 -6 -6 -6 -5 -4 -4 -4 -3 -3 -2 -2 -2 -2 -1 -1 -1
-5 -6 -7 -8 -8 -8 -8 -8 -8 -8 -8 -8 -8 -8 -8 -8 -8 -8 -8 -8 -8 -7 -6 -5 -5 -5 -4 -4 -3 -2 -2 -2 -2 -2 -1 -1 -1 -1
-7 -8 -8 -8 -8 -8 -8 -8 -8 -8 -9 -9 -9 -9 -9 -9 -8 -8 -8 -8 -7 -7 -6 -5 -4 -4 -3 -1 -0 -2 -2 -2 -2 -1 -1 -1 0 0
-8 -9 -9 -9 -9 -9 -9 -9 -9 -9 -9 -9 -9 -9 -9 -8 -8 -8 -8 -8 -7 -6 -5 -4 -5 -4 -3 -2 -1 -1 -2 -2 -2 -1 -1 -1 -1 -0
-9 -9 -9 -9 -10 -10 -9 -9 -9 -9 -10 -10 -9 -8 -9 -9 -8 -8 -8 -7 -7 -5 -5 -4 -4 -4 -3 -3 -3 -2 -1 -2 -2 -1 -1 -1 -1 0
-10 -10 -10 -10 -10 -10 -10 -10 -10 -10 -9 -9 -10 -9 -9 -9 -8 -8 -8 -6 -5 -5 -4 -4 -4 -4 -4 -4 -2 -1 -1 -2 -2 -2 -1 -1 -1 -0
-10 -10 -10 -11 -11 -10 -10 -10 -10 -10 -10 -10 -9 -9 -9 -9 -8 -8 -7 -6 -6 -5 -4 -4 -4 -4 -4 -3 -3 -2 -1 -2 -1 -1 -1 -2 -2 -1
-11 -11 -11 -11 -11 -11 -11 -11 -10 -10 -10 -10 -9 -9 -8 -8 -7 -7 -7 -6 -5 -4 -4 -4 -4 -3 -4 -3 -3 -2 -1 -1 -2 -1 -1 -1 -1 -1
Height
802 801 800 799 797 795 793 791 787 768 755 759 759 759 756 752 747 743 737 732 728 723 718 712 707 702 697 692 689 686 684 681 679 677 675 674 672 670
799 798 797 795 793 791 789 787 785 779 758 757 753 752 749 744 739 735 730 725 719 714 709 703 698 693 688 684 680 676 672 669 666 664 661 658 656 655
797 795 794 791 789 787 784 782 778 775 763 743 748 744 740 735 731 727 723 718 711 705 700 694 688 683 677 672 667 663 660 657 653 650 647 645 642 641
793 791 789 787 784 782 779 776 773 770 763 747 741 736 732 728 723 718 714 710 703 697 691 684 679 673 667 662 657 653 649 645 642 638 635 633 631 629
789 787 785 782 780 777 774 770 766 762 756 749 734 730 725 721 715 710 706 700 695 689 680 676 670 663 658 652 646 641 636 632 630 627 624 622 620 618
786 783 781 779 775 772 769 765 760 755 748 741 732 726 721 715 710 702 695 691 686 681 670 666 659 653 647 641 635 629 625 621 618 614 612 610 608 606
782 779 776 773 771 768 764 759 754 748 741 732 727 722 715 709 704 698 690 682 675 673 660 655 649 641 634 628 622 617 613 609 605 602 599 597 595 594
777 774 771 767 764 761 758 753 748 741 734 730 723 715 710 705 699 692 685 677 662 663 655 643 641 629 623 617 611 606 600 595 591 588 585 583 581 580
772 768 765 762 758 754 749 744 739 736 732 726 718 712 706 700 693 686 679 672 662 653 650 632 630 620 613 605 598 593 587 582 577 573 570 568 566 565
767 763 759 756 753 748 741 735 731 727 723 719 714 706 700 694 689 682 674 665 655 647 644 629 620 612 603 594 586 580 575 570 565 560 556 553 551 550
762 758 755 751 747 742 735 730 724 719 715 711 706 700 694 687 682 676 667 660 648 639 633 626 613 605 595 579 572 568 564 558 552 547 543 539 536 535
758 754 751 747 740 735 731 725 719 713 707 701 698 691 686 679 675 672 665 657 649 635 625 622 611 605 586 571 566 560 551 546 541 535 530 526 523 520
753 748 745 741 735 730 726 720 715 708 702 697 691 684 679 674 668 664 659 654 645 636 622 620 608 602 597 577 557 551 546 536 529 522 516 512 508 505
749 745 740 735 731 726 720 715 710 704 699 693 687 680 674 668 661 655 649 643 638 630 617 613 605 598 588 574 560 544 537 529 522 513 505 497 492 488
746 741 736 731 726 720 716 711 706 700 695 689 683 676 670 663 655 648 641 635 627 619 611 604 599 589 582 570 557 542 533 519 513 504 493 485 477 471
741 736 732 727 722 717 711 706 702 697 692 686 679 672 664 657 650 644 636 628 620 607 603 597 591 583 572 562 553 538 529 521 505 494 482 470 460 453
737 733 728 722 718 713 707 702 698 693 687 681 674 667 659 653 645 639 633 625 618 606 595 588 583 576 566 557 545 534 524 514 502 487 473 459 446 436
734 729 725 721 716 711 705 699 694 688 683 677 670 664 656 650 642 635 629 622 614 604 595 586 577 566 556 546 539 530 523 512 497 483 470 458 442 430
732 727 723 719 713 708 703 697 690 684 679 672 666 658 652 645 640 632 624 617 609 602 593 585 577 570 560 549 535 529 522 510 496 481 469 458 449 436
729 725 720 716 710 705 699 693 686 679 673 667 660 654 647 642 635 628 620 614 606 597 589 582 575 569 563 553 544 527 521 512 501 488 474 460 451 440
726 722 717 712 707 701 695 688 682 675 669 662 655 649 642 637 630 624 617 610 604 596 587 579 572 566 559 551 542 530 519 512 504 495 483 469 460 450
723 718 713 708 702 696 690 684 676 670 663 657 651 644 638 632 626 620 613 607 600 594 586 578 570 563 557 552 544 534 523 513 504 498 490 483 476 465
720 714 709 703 697 691 685 679 673 666 659 653 646 639 633 627 622 616 610 603 597 591 584 577 570 564 559 553 545 536 527 518 511 501 494 487 480 472
Wind_Speed
9 10 11 12 13 13 13 14 15 12 15 20 10 23 27 28 28 29 30 30 32 34 36 38 40 41 40 39 38 40 41 43 47 49 50 50 50 49
9 11 12 12 14 14 15 16 17 21 13 27 29 30 30 29 30 30 31 33 34 34 35 38 39 40 42 44 45 48 50 50 49 49 50 49 48 47
11 10 13 14 14 15 16 17 19 21 17 35 32 33 33 32 32 30 28 28 32 37 40 42 43 42 42 43 45 45 46 46 47 46 46 45 44 43
13 13 14 15 16 16 17 18 19 22 26 28 35 33 33 33 32 29 31 33 33 34 36 37 39 41 42 41 42 44 45 46 44 45 45 45 44 44
14 14 16 16 17 17 17 20 22 24 24 27 34 35 33 27 32 33 31 34 31 32 37 36 36 38 39 41 42 43 43 43 43 44 44 44 44 44
16 18 17 16 17 18 21 22 21 25 28 28 29 23 29 32 31 30 29 30 30 31 38 36 36 37 39 40 41 42 41 40 40 41 41 41 41 42
17 19 17 17 20 21 23 24 26 25 26 21 23 26 28 28 27 30 30 33 33 31 34 32 31 36 37 38 38 38 37 36 38 39 39 39 40 40
17 18 19 21 21 20 24 25 27 29 23 25 26 24 29 28 31 30 29 28 15 28 25 38 32 35 34 35 36 37 39 40 41 41 40 40 41 41
18 20 20 19 22 22 26 27 29 21 27 30 29 29 30 31 30 30 32 29 29 35 32 34 34 34 35 36 38 39 40 39 39 40 40 41 42 43
20 21 20 21 21 25 30 24 25 26 25 27 29 30 31 30 34 31 32 34 33 33 28 15 33 32 35 36 40 38 36 35 35 36 37 38 39 41
21 19 19 21 26 29 27 27 28 28 28 26 27 28 34 31 27 28 26 23 16 27 31 24 25 30 35 39 33 25 30 34 36 36 37 37 39 40
20 19 18 24 28 27 30 27 25 29 27 25 28 27 23 25 24 21 24 22 20 12 19 18 28 23 8 18 21 35 30 31 32 34 35 37 38 38
21 22 23 26 28 30 28 24 24 29 27 25 25 25 25 24 24 23 24 24 24 23 37 29 22 27 16 19 31 28 32 32 31 33 32 32 34 37
22 24 26 28 30 28 24 22 25 25 22 21 23 24 25 26 27 30 31 30 29 33 41 36 25 26 24 16 15 26 34 34 28 29 31 33 34 36
22 26 27 27 26 22 20 23 22 19 20 22 22 25 25 29 31 29 30 29 29 30 30 29 29 31 27 22 15 29 27 26 33 28 34 33 33 32
23 21 24 23 19 20 20 19 19 20 22 23 23 27 27 27 26 26 27 28 27 29 23 24 26 28 27 28 24 25 28 11 36 35 35 35 32 32
26 20 19 19 19 20 21 22 22 22 22 23 23 25 26 25 28 26 25 26 21 22 27 30 26 26 26 28 22 25 24 28 31 36 34 28 29 27
19 16 18 18 19 21 22 25 24 24 23 24 25 24 24 25 25 27 24 21 20 23 24 28 28 26 25 17 13 17 22 25 34 35 31 19 17 28
14 16 17 19 21 22 22 23 26 26 27 24 24 26 25 24 25 23 23 21 21 21 23 24 21 15 11 12 21 21 18 28 30 31 31 26 11 24
14 17 19 21 22 23 24 25 27 27 25 25 25 25 24 22 22 21 22 20 20 22 21 21 18 17 10 9 8 26 28 26 27 26 27 24 23 30
18 19 20 22 23 24 25 26 26 27 27 27 26 24 24 21 22 22 22 24 24 18 11 17 23 24 23 16 9 11 27 30 31 25 29 17 9 13
19 21 23 23 24 25 27 27 27 27 27 26 26 26 25 22 21 21 21 20 19 18 18 21 24 21 11 8 9 11 18 28 31 26 33 33 13 6
21 23 25 26 27 27 27 27 27 28 27 27 27 27 25 23 23 21 21 20 19 17 17 18 19 16 14 10 14 12 16 20 22 24 27 33 31 27
Wind_Direction
325 317 308 305 296 290 282 285 296 306 304 309 309 305 307 305 301 300 300 299 298 297 295 294 293 291 291 289 284 284 283 283 282 281 279 275 272 267
323 313 310 310 305 298 289 282 279 286 292 303 304 306 305 301 297 298 300 298 296 296 296 293 296 291 289 287 286 284 285 285 282 278 275 272 268 266
320 317 315 317 309 306 299 288 281 282 283 295 300 303 304 302 304 304 300 295 292 294 295 293 292 292 290 287 286 284 283 281 279 277 274 271 269 267
327 326 322 320 311 305 298 293 289 288 285 289 299 300 301 307 305 306 303 298 296 295 294 292 294 293 290 288 286 284 283 280 278 278 277 275 273 271
326 325 321 319 312 307 302 298 293 288 284 282 291 297 303 308 305 305 304 301 299 298 294 294 293 290 290 289 287 286 284 282 279 277 276 274 270 268
324 325 318 313 309 305 301 296 295 295 293 289 288 300 306 309 305 306 304 302 301 301 294 292 291 290 289 288 287 285 283 282 280 276 274 271 269 267
316 317 313 310 306 303 300 304 302 298 294 291 308 307 304 309 307 306 300 304 303 302 294 293 295 292 289 289 286 285 283 280 277 274 271 269 266 263
312 311 311 313 308 303 303 302 302 300 304 310 305 300 303 304 303 301 301 307 304 311 302 296 297 292 291 288 287 287 285 282 279 276 273 269 266 263
313 312 310 305 304 304 302 302 297 298 301 302 300 297 297 298 298 304 303 300 298 300 302 294 298 293 293 291 290 288 286 283 280 276 272 268 264 261
314 313 305 300 305 308 308 310 312 309 304 301 295 293 293 301 304 301 301 297 296 297 300 289 297 293 297 293 292 288 287 286 282 277 272 268 265 262
313 309 307 309 313 314 319 315 310 308 305 301 298 298 300 301 302 305 301 304 300 302 306 293 299 303 300 293 289 288 293 289 283 279 275 270 266 262
313 311 308 317 318 318 319 316 312 308 307 309 308 307 306 307 306 303 299 295 298 305 307 308 307 316 310 295 297 300 295 292 289 284 279 273 268 264
317 318 319 319 319 320 317 313 305 309 316 312 311 310 312 311 310 308 302 292 292 285 290 304 300 300 288 296 303 301 297 295 294 290 286 279 270 261
320 319 316 320 320 317 314 313 314 316 312 312 311 308 310 308 308 307 305 298 290 282 292 293 284 289 289 291 293 299 302 299 293 288 284 280 277 269
319 316 318 319 319 318 317 317 318 318 316 311 308 305 305 304 305 307 308 306 301 296 298 298 285 287 283 283 287 294 300 306 302 293 292 282 273 266
321 321 319 319 317 315 320 323 322 318 313 308 306 303 305 308 307 310 309 311 310 308 311 305 300 292 292 290 289 290 295 298 304 302 303 295 285 266
324 320 323 326 324 324 324 322 322 320 314 312 309 308 307 310 309 313 309 309 305 306 312 317 316 308 294 284 289 289 297 305 310 312 315 311 306 291
324 324 324 322 318 320 319 316 317 316 314 311 307 304 303 306 307 310 308 304 303 307 310 314 323 327 330 324 308 288 304 313 320 325 329 327 320 336
327 325 320 317 314 312 310 311 310 312 310 305 303 302 303 304 309 305 306 306 306 307 308 314 316 319 324 321 310 320 313 322 328 335 343 338 318 332
327 322 315 312 310 308 310 310 310 310 310 308 305 304 303 301 304 304 305 305 305 310 314 317 321 320 314 311 309 304 336 331 336 336 343 344 347 4
322 316 313 307 306 307 308 308 307 306 308 307 305 304 304 303 301 302 302 307 313 312 307 318 320 322 320 319 310 316 334 347 347 343 349 354 351 346
317 314 310 307 306 307 308 309 308 308 309 309 307 305 304 302 298 299 301 304 307 307 306 314 324 331 333 333 318 321 330 340 349 359 8 11 3 341
314 312 309 308 309 310 309 308 307 306 306 305 304 304 305 301 303 301 301 304 304 313 318 326 329 337 329 320 324 319 335 347 350 352 -0 7 19 29